map of NST home
Great Circle Mapper logo
NST - Airport
Location
City:  Nakhon Si Thammarat, Thailand
ICAO / IATA:VTSF / NST

Details
Type:Airport (Aerodrome, Airfield)
Use:Public/Civil
Latitude:832'23"N (8.539617)
Longitude:9956'41"E (99.944725)
Datum:WGS 1984
Elevation:13 ft (4 m)
Runways:1
Longest:6890 × 148 ft (2100 × 45 m), paved

Time
Time Zone:UTC+7
Local Time:

Weather
METAR:VTSF 291500Z VRB01KT 9999 FEW018 BKN300 26/25 Q1009 A2981 INFO P / RWY 19
TAF:VTSF 290500Z 2906/3006 24008KT 9999 SCT018 BKN300
TEMPO 2906/2911 26015KT 4000 TSRA FEW016CB BKN020 BKN110
BECMG 2912/2914 00000KT FEW018 SCT300
BECMG 3001/3003 VRB05KT 9999

Related Locations
Nearby:
Farthest:TRU: 12372 mi / 19911 km
Trujillo [Capitan Carlos Martinez de Pinillos], PE

Find:

   beyond  
but within

Other Information
Maps:
NOTAMs:
Links:
Sources:

  
flag of Thailand   

Sectional Chart

Flight Planning
at skyvector.com

Satellite Image

Google Maps Satellite View

 

Copyright © 2004-2014 Karl L. Swartz. All rights reserved.
The Great Circle Mapper name and logo are trademarks of the Great Circle Mapper.
All other trademarks mentioned herein belong to their respective owners.
Please see credits for attibutions and further copyright information.

  Follow gcmap on Facebook Follow gcmap on Twitter

hCard Microformat

Geo Microformat